Wind_Speed
77 77 77 77 77 78 79 80 80 81 81 82 84 85 86 87 87 88 89 90 90 90 90 91 93 95 97 99 101 101 100 100 101 102 103 104 106 109 111 112 113 114 115 117 119 121 123 124 126 128 131 132 133 134 135 137 138 140 141 143 144 143 143 142 141 140 140 142 145 147 148 149 149 149 147 145 144 143 142 141 140 140 141 141 142
79 78 78 79 80 81 82 83 84 84 84 84 85 86 87 88 89 91 92 92 93 93 93 95 97 99 100 102 104 104 103 103 104 104 105 107 110 111 113 114 115 116 117 119 122 123 125 127 129 131 133 135 135 136 138 139 140 142 143 145 146 145 144 144 143 142 141 143 146 149 150 151 150 151 149 147 145 144 143 141 140 140 141 142 143
82 81 81 81 82 83 84 86 86 85 85 86 87 88 90 91 92 93 94 94 95 96 97 99 101 103 104 105 106 106 106 106 106 107 108 110 112 113 115 116 117 118 120 122 124 126 127 129 131 134 136 136 137 138 140 141 142 143 145 147 147 146 146 146 145 144 144 145 148 150 151 152 152 152 151 149 147 146 145 143 141 140 141 142 142
86 86 85 85 85 86 87 88 88 88 89 89 90 91 92 93 94 95 96 96 97 98 100 102 104 106 106 107 107 107 108 107 108 109 111 113 114 115 116 117 118 120 122 124 126 128 130 131 134 136 138 138 139 140 142 143 144 145 147 148 148 147 147 147 147 147 147 148 150 151 152 153 153 152 152 151 150 148 146 144 142 142 142 141 140
89 90 90 89 90 90 90 90 91 92 93 93 93 94 95 96 96 97 97 98 99 101 103 105 106 107 107 108 108 109 109 109 109 111 113 114 115 116 117 118 120 122 125 126 128 130 132 134 136 138 139 140 141 142 143 144 145 147 148 148 148 147 148 148 149 150 151 152 152 153 153 154 153 153 153 152 150 148 146 144 142 142 141 140 138
92 92 93 93 93 93 93 93 94 95 95 95 96 97 97 98 98 99 100 101 102 104 105 106 107 108 109 109 110 110 110 110 111 114 115 115 116 117 118 120 122 125 127 129 130 132 134 136 138 139 140 141 142 143 144 145 147 148 149 148 148 148 148 149 150 152 153 154 154 154 154 154 153 153 153 152 151 149 147 145 143 141 139 136 135
94 95 95 95 95 95 95 95 96 97 97 98 99 100 100 101 101 102 103 104 105 106 107 108 109 110 110 111 111 112 112 112 113 115 116 116 117 118 120 122 125 127 129 131 132 134 136 138 139 141 142 142 143 144 145 146 148 149 149 148 148 148 149 150 152 153 154 155 155 155 155 155 154 153 152 151 151 150 149 147 144 140 136 134 133
96 97 97 97 96 96 96 97 98 99 100 101 102 102 103 103 104 105 105 105 106 107 108 110 111 111 112 112 112 112 112 113 115 116 116 117 119 121 123 125 127 129 131 132 134 136 138 140 141 141 142 143 144 145 146 147 149 149 148 148 148 149 150 151 153 154 155 155 156 156 155 155 155 153 151 150 149 149 148 147 143 139 135 133 133
98 98 98 98 98 98 98 98 99 100 101 102 103 104 104 105 106 106 106 107 107 108 110 111 112 112 112 112 112 113 113 114 116 117 118 119 121 123 126 127 129 131 133 134 136 138 140 141 141 142 143 143 144 146 147 148 148 148 148 148 149 149 151 152 154 154 155 155 156 156 155 154 154 153 151 150 149 148 147 145 141 137 135 133 133
99 99 99 99 99 99 100 100 101 102 103 103 104 105 106 107 108 108 109 109 109 110 111 112 113 112 112 112 112 113 115 116 117 119 120 122 124 126 128 129 131 133 135 137 139 140 141 141 142 142 143 144 145 146 147 148 147 147 148 148 149 150 152 153 154 155 155 156 156 156 155 154 153 152 151 150 149 148 146 143 139 136 135 133 132
100 101 101 101 101 102 102 103 103 103 104 105 106 108 109 110 110 111 111 110 111 111 112 113 113 112 112 113 114 116 117 118 120 122 124 126 127 129 130 132 134 136 137 139 141 141 142 142 142 143 143 144 145 146 147 147 147 148 148 149 151 152 153 154 154 155 155 155 155 156 155 154 153 152 151 150 148 146 143 141 138 136 135 134 132
102 103 103 103 104 104 104 105 105 106 106 107 109 110 110 111 111 111 111 111 112 112 113 113 113 113 114 116 117 118 120 122 124 125 127 129 130 132 133 135 136 138 140 141 142 142 142 142 143 144 144 145 146 146 147 147 148 148 149 151 152 154 154 155 155 155 155 155 155 155 155 154 153 152 151 150 147 144 141 139 138 136 135 134 133
104 105 105 105 106 106 106 106 107 107 108 109 110 110 111 111 112 112 112 111 111 112 112 113 114 115 117 119 120 122 124 126 128 129 130 131 133 134 135 137 138 140 141 142 142 142 142 143 143 144 144 145 146 146 147 147 148 149 150 152 154 154 155 155 155 155 155 155 154 154 154 154 152 151 151 149 146 142 140 139 137 136 135 134 134
105 105 106 106 107 107 107 107 108 108 109 110 110 111 112 112 112 112 111 111 111 112 113 115 117 118 120 122 124 126 128 129 131 132 133 134 135 136 137 138 139 140 141 142 142 142 142 143 144 144 145 145 146 146 147 148 149 150 152 153 153 154 154 155 155 155 154 154 153 153 153 153 152 151 149 147 144 142 140 139 138 136 135 135 134
106 106 107 107 107 108 108 108 108 109 110 110 111 112 113 113 113 112 111 112 113 114 116 118 120 122 124 126 128 129 131 132 134 135 136 136 136 137 138 139 140 141 141 141 141 141 142 143 144 144 145 146 146 146 147 148 149 151 152 152 152 153 153 153 153 153 153 153 152 152 152 152 151 150 147 145 143 141 141 140 139 138 137 135 134
107 107 108 109 109 109 109 109 109 110 110 111 112 114 114 114 114 114 114 115 116 118 121 123 125 127 128 130 131 132 134 135 136 136 136 136 137 137 138 139 140 141 141 141 141 141 142 143 144 145 145 146 146 147 148 149 150 150 150 150 151 151 152 152 151 151 151 151 151 151 150 150 150 147 145 143 142 141 141 141 140 140 139 137 134
109 110 110 111 111 112 112 112 112 112 113 114 115 116 116 116 117 117 118 120 122 124 126 127 129 130 131 133 134 135 135 136 137 136 136 136 137 138 139 140 141 140 140 140 141 142 143 144 144 145 145 146 146 147 148 149 149 149 149 149 150 150 150 150 149 149 150 149 149 149 149 149 147 145 144 143 142 142 142 141 141 140 139 137 134
113 113 114 114 114 114 115 115 116 116 117 118 119 119 120 120 121 122 123 124 126 127 129 130 131 132 133 134 134 135 135 136 136 135 135 136 137 138 139 140 140 140 140 140 141 143 144 145 145 145 145 146 147 148 148 148 147 148 148 148 148 148 147 147 147 147 147 147 147 148 147 146 145 144 143 143 143 143 143 141 140 140 139 138 134
116 117 117 117 117 118 118 119 120 121 122 122 123 123 124 124 125 126 126 127 128 129 130 131 132 132 133 133 134 134 134 134 135 135 136 137 138 138 139 139 139 139 140 141 143 144 145 145 145 145 146 147 147 147 147 147 146 147 147 146 145 145 145 145 145 144 144 144 145 145 144 143 143 143 143 144 144 144 143 142 141 140 140 138 133
118 119 119 120 120 121 122 123 123 124 125 125 126 126 126 127 127 127 128 128 129 130 130 131 132 132 133 133 133 133 133 134 134 135 136 137 137 138 138 138 139 140 141 142 143 144 145 145 145 146 146 147 146 146 146 146 146 145 145 144 143 143 143 143 142 142 142 142 143 142 142 142 142 143 144 144 145 145 144 143 142 141 140 137 132
120 120 121 122 122 123 124 125 125 126 126 126 127 127 127 128 128 128 129 129 130 130 130 131 132 132 132 132 132 133 133 133 134 134 135 136 136 137 137 138 140 141 142 143 143 144 145 145 146 146 146 146 146 146 146 145 144 144 143 142 141 141 141 141 140 141 141 141 141 141 140 141 142 143 144 145 146 146 146 145 144 143 140 136 131
120 121 122 122 123 123 124 125 125 125 126 126 127 127 128 128 128 129 129 129 130 130 131 131 131 131 131 132 132 132 132 132 133 133 134 135 136 137 138 139 140 141 141 142 143 144 145 145 146 146 145 145 145 145 144 143 142 141 141 140 140 140 139 139 139 139 140 140 140 140 140 141 142 143 144 145 146 146 146 146 145 144 141 136 132
121 122 122 123 123 123 124 124 125 125 126 127 127 128 128 128 129 129 130 130 130 130 130 130 130 130 130 130 131 131 131 131 132 133 134 135 136 138 138 139 140 140 141 142 143 144 144 145 145 144 144 144 144 143 142 141 140 139 139 139 138 138 138 138 138 139 139 139 139 140 140 141 142 143 144 144 145 145 145 145 145 143 140 137 135
122 122 123 123 123 124 124 125 126 126 127 128 128 128 128 129 129 129 129 129 129 128 128 128 128 128 128 129 129 130 130 131 132 133 135 136 137 138 138 139 139 140 141 142 143 143 143 143 143 143 142 141 141 140 139 138 138 138 137 137 137 136 137 137 138 138 139 139 140 140 141 142 142 143 144 144 144 144 144 144 144 142 140 139 137
121 122 122 123 123 124 124 125 125 125 126 126 126 126 126 126 126 126 126 126 126 126 126 126 126 127 127 128 129 129 130 132 133 135 136 137 137 138 138 138 138 139 140 141 142 142 142 142 141 140 139 138 138 137 137 136 136 136 135 135 135 135 136 137 137 138 139 140 140 141 142 143 143 144 144 144 144 143 143 144 142 140 139 139 138
119 119 120 121 122 122 122 122 123 123 123 123 123 123 123 123 123 123 123 123 123 124 124 125 126 126 127 128 129 130 132 133 134 135 136 136 137 137 137 137 138 139 139 140 140 140 139 138 137 136 135 135 135 135 134 134 135 134 134 134 134 135 135 137 138 139 140 140 141 142 143 144 144 145 145 145 144 144 144 142 139 137 137 137 136
115 116 117 117 118 118 119 119 119 120 120 120 120 120 120 120 120 121 121 122 123 124 124 125 126 127 128 129 130 131 132 133 134 134 135 136 136 137 137 137 137 137 137 137 137 136 135 134 133 133 133 133 133 133 133 133 133 133 133 133 134 134 136 137 138 140 141 142 143 143 144 145 145 146 146 145 145 145 143 140 137 135 135 134 132
111 112 113 113 114 115 115 116 116 116 117 117 117 118 118 119 120 120 121 122 123 124 125 126 128 129 129 130 130 131 132 132 133 134 135 136 136 137 137 136 135 133 133 133 133 132 131 131 131 131 131 131 131 131 132 132 132 132 133 133 134 135 137 138 140 141 142 143 144 145 146 146 146 146 146 146 146 145 143 139 136 134 133 131 129
108 108 109 110 110 111 112 112 113 114 114 115 116 117 118 119 120 121 122 123 124 125 126 127 128 128 129 129 130 131 132 133 134 134 135 135 135 134 133 132 130 129 128 129 130 129 129 129 128 129 129 129 130 130 130 131 132 133 133 134 135 137 138 140 141 143 144 145 146 147 147 147 146 146 147 147 147 145 141 138 135 134 132 129 126
103 104 105 106 107 108 109 110 111 112 113 115 116 117 118 120 121 122 123 123 124 125 126 127 128 128 129 130 130 131 132 132 133 132 132 131 130 129 128 127 126 125 125 127 127 127 126 126 126 127 127 128 128 129 130 131 133 134 135 136 137 139 140 142 143 144 145 146 147 148 148 147 147 147 147 147 146 144 140 137 135 133 130 127 123
101 102 103 105 106 107 108 109 111 112 114 115 116 117 119 120 121 122 123 123 124 125 126 127 128 129 129 129 129 130 130 129 128 127 127 126 125 125 124 124 123 123 123 124 124 124 124 124 124 125 126 127 128 129 131 133 134 136 137 138 139 141 142 143 144 145 146 147 148 149 149 148 148 148 147 147 145 142 139 136 134 132 129 124 120
106 107 107 108 109 110 111 112 113 115 116 117 118 119 120 121 121 122 123 124 124 125 126 126 127 127 127 126 126 125 125 124 123 123 122 122 122 122 121 121 121 120 120 120 121 121 121 121 122 123 125 127 128 130 132 134 135 137 138 140 141 142 143 144 145 146 146 147 148 149 149 149 148 148 147 146 143 140 137 136 134 131 127 122 117
111 111 112 113 113 114 115 116 116 117 118 118 119 119 120 121 121 122 122 123 123 123 124 124 124 123 123 122 121 120 120 120 120 119 120 119 119 119 118 118 118 117 117 117 118 119 120 121 122 124 126 128 129 131 134 135 137 138 140 141 142 143 144 145 145 146 146 147 148 149 149 150 149 148 147 145 142 139 137 135 133 129 124 119 114
108 110 111 112 113 113 114 115 115 116 116 117 117 118 118 118 119 119 119 119 119 119 119 119 119 118 118 117 117 117 117 117 117 117 116 116 115 115 115 114 114 114 114 115 117 119 121 122 123 125 127 128 130 133 135 137 138 139 140 142 143 144 145 145 145 146 146 147 148 149 150 150 148 147 146 144 141 139 137 134 131 127 122 117 112
103 104 106 107 108 109 110 111 111 112 112 113 113 113 113 113 113 113 113 113 113 113 113 114 114 114 114 114 114 114 114 114 113 113 113 112 112 111 111 111 112 113 115 117 119 120 122 123 125 127 128 129 131 134 136 138 139 140 141 142 143 144 144 145 145 145 146 147 148 149 150 149 148 147 145 143 141 138 136 132 129 124 120 115 110
98 99 100 100 101 102 103 103 104 105 105 106 106 106 107 107 107 107 108 108 108 109 110 110 111 111 111 111 112 112 111 110 110 109 109 109 109 109 110 111 113 115 117 119 121 122 124 125 127 129 130 131 132 134 136 138 139 140 141 142 143 144 144 145 145 146 146 148 149 150 149 148 147 146 144 142 140 137 134 130 126 122 117 113 109
93 94 95 95 96 97 97 98 99 99 100 101 101 102 103 104 104 105 105 106 107 107 108 108 108 109 108 108 109 108 108 107 106 106 107 108 109 110 112 113 114 117 119 121 123 124 126 127 129 130 132 132 133 135 136 138 139 140 141 142 142 143 144 145 145 146 147 148 149 149 148 147 146 144 143 141 139 136 132 128 124 119 115 111 109
91 92 93 94 95 96 97 98 99 99 100 101 101 102 102 103 104 104 104 105 105 104 104 104 104 104 105 105 106 106 106 106 105 106 108 109 111 112 114 115 117 119 121 122 125 126 128 129 130 132 133 134 134 136 137 138 138 139 140 141 142 144 145 145 146 147 148 148 149 149 148 146 145 143 142 140 137 134 130 126 121 116 112 110 108
91 92 93 94 95 96 97 98 99 100 100 101 101 101 101 101 101 101 101 101 100 100 100 100 101 102 103 104 105 106 106 106 107 108 110 111 113 115 117 118 119 121 122 124 126 127 129 130 131 133 134 135 135 136 136 137 137 138 139 141 143 144 146 146 147 147 148 148 148 148 147 145 144 142 141 138 135 132 128 123 117 112 110 109 107
91 92 93 94 95 96 96 97 97 98 98 98 98 97 97 97 97 97 97 97 97 97 98 99 100 101 103 104 106 107 107 108 109 110 112 113 115 117 119 120 121 122 124 125 127 128 130 131 132 133 134 135 135 135 136 136 137 138 140 141 143 145 147 147 147 147 147 148 148 147 146 144 143 141 139 137 133 129 125 119 114 110 108 107 104
90 91 91 91 92 92 92 93 93 93 93 93 93 93 93 93 94 94 95 96 97 98 99 100 101 103 105 106 108 109 109 109 110 112 114 115 117 119 120 122 123 124 125 126 128 129 131 132 133 133 134 134 135 135 136 137 138 139 140 142 144 146 147 147 147 146 147 147 147 146 145 143 141 140 137 134 130 126 121 115 111 108 107 105 101
85 84 85 85 86 86 87 87 88 89 89 90 91 91 92 93 94 95 97 98 99 100 101 103 104 106 107 108 110 111 111 112 113 114 116 118 120 121 122 124 125 125 126 128 129 130 131 132 133 133 134 134 135 136 137 138 139 140 141 143 145 146 147 146 146 146 146 146 146 145 143 142 140 137 135 131 127 121 116 111 108 106 105 103 98
81 82 83 84 85 86 87 88 89 90 91 92 93 94 96 97 98 99 100 101 103 104 105 106 107 108 110 111 112 113 113 114 116 117 119 121 122 123 125 126 126 127 128 129 130 131 132 133 134 134 135 135 136 137 138 139 140 141 142 143 145 146 146 146 146 146 145 145 144 143 142 140 137 134 131 127 122 117 112 109 107 105 103 99 95
83 85 86 87 88 89 90 91 92 93 94 96 97 98 99 101 102 103 104 104 106 107 108 109 110 111 112 114 115 116 116 117 118 120 121 123 124 125 126 127 128 128 129 130 131 132 132 134 135 136 137 137 137 138 139 140 141 142 142 143 145 146 147 146 146 145 144 143 142 141 140 137 134 130 127 122 117 112 109 107 106 103 100 96 92
87 88 89 89 90 91 92 93 94 96 97 98 99 100 102 103 104 105 106 107 108 109 110 111 113 114 115 117 118 119 119 120 121 122 123 125 126 127 128 128 128 129 130 131 132 133 134 135 137 138 138 139 139 140 140 141 141 142 143 144 145 146 146 146 145 144 143 141 140 139 136 133 130 126 121 117 113 109 107 106 104 100 97 93 90
89 90 91 92 93 94 95 96 97 98 99 100 101 103 104 105 106 107 108 109 110 112 113 114 115 116 117 119 120 121 121 122 123 124 125 126 127 128 129 129 130 130 131 132 134 135 136 137 138 139 140 140 140 140 141 141 142 142 143 144 144 145 145 145 144 143 141 140 137 135 132 128 124 120 116 112 109 107 106 104 101 97 94 91 88
92 93 94 95 96 97 98 99 100 101 103 104 105 106 107 108 109 110 111 112 113 114 115 116 118 119 120 121 122 122 123 124 124 125 126 128 129 130 130 131 132 132 133 134 135 136 137 138 139 140 141 142 142 142 142 143 143 143 143 144 144 144 144 143 142 141 139 136 133 130 126 122 118 114 111 109 108 106 105 101 97 94 91 89 86
96 97 98 99 100 101 102 103 104 105 107 108 109 110 110 111 112 113 114 115 116 117 118 119 120 121 122 123 124 124 125 125 126 127 128 130 131 132 132 133 133 134 135 135 136 137 138 139 139 141 142 143 143 143 143 144 144 144 144 144 143 143 143 142 140 138 135 131 128 124 120 116 113 110 109 108 107 105 102 98 94 91 89 87 85
101 101 102 103 104 106 107 108 109 110 111 112 112 113 114 115 115 116 117 118 119 119 120 121 122 123 124 125 126 127 127 128 128 129 131 132 133 134 134 135 136 136 136 137 138 139 139 139 140 141 142 142 143 144 144 144 144 144 144 143 143 142 140 138 136 133 129 125 122 118 115 112 110 108 108 107 105 102 98 95 92 89 87 85 83
105 106 108 109 110 111 112 113 113 114 115 115 115 116 117 117 118 118 119 120 121 121 122 123 124 125 126 127 128 129 129 130 131 132 133 134 135 136 136 137 137 138 138 139 140 140 140 140 141 141 142 143 144 144 144 144 144 143 143 141 140 138 136 133 130 126 123 119 116 114 111 110 109 108 106 104 101 98 95 92 89 87 85 84 82
111 112 113 114 114 115 116 116 116 117 117 117 118 118 119 119 120 121 121 122 123 123 124 125 126 127 128 129 130 131 131 132 133 134 135 136 136 137 138 139 139 140 140 140 141 141 141 142 142 142 142 143 143 143 143 143 142 140 139 136 134 131 129 126 123 120 117 115 113 112 110 109 108 106 104 101 98 95 92 90 87 85 83 82 80
Wind_Direction
265 266 267 270 272 273 273 272 272 273 275 277 279 280 281 282 283 284 285 287 288 290 291 293 294 294 294 295 296 297 298 298 299 299 301 303 305 307 308 308 307 307 306 306 306 306 307 308 310 311 312 313 313 313 314 314 314 314 314 314 315 315 315 316 316 317 316 317 317 318 318 318 319 319 320 320 320 320 320 320 319 319 319 319 318
265 266 268 270 271 272 273 273 274 275 277 279 281 282 282 283 284 285 286 287 288 290 291 292 293 293 294 294 295 296 298 298 298 300 302 303 305 306 307 307 306 306 305 305 306 306 307 308 310 311 312 312 313 313 313 313 313 313 313 314 314 315 315 315 316 316 316 316 316 317 318 318 319 319 320 320 320 320 320 319 319 319 318 318 318
265 266 268 269 271 273 274 275 275 276 277 279 281 282 282 283 283 284 286 287 288 289 290 291 292 292 293 293 294 295 297 298 299 300 302 303 305 305 306 306 305 305 305 305 306 307 308 309 310 311 312 312 312 312 312 312 312 312 313 313 314 314 314 315 315 316 316 316 316 317 317 318 319 319 320 320 320 320 320 320 319 318 318 318 318
264 265 267 269 272 274 275 275 275 276 277 278 279 281 281 281 282 283 285 286 287 288 289 290 291 291 292 293 294 295 297 298 299 300 302 303 304 304 305 304 304 304 304 305 306 307 308 308 310 310 311 311 311 312 312 311 311 312 312 313 313 313 314 314 314 315 315 316 316 317 317 318 319 319 319 320 320 320 320 320 319 318 319 319 319
263 265 266 269 271 273 274 274 274 275 276 277 278 279 280 281 282 283 284 285 286 287 288 289 290 291 292 293 294 295 297 298 299 300 301 302 303 303 303 303 303 303 304 305 306 307 307 308 309 310 310 310 311 311 311 311 311 311 312 312 313 313 313 313 314 314 315 316 316 317 317 318 318 319 319 320 320 320 319 319 318 318 319 319 319
264 265 267 269 271 273 273 273 274 275 275 277 278 279 280 280 281 282 283 284 284 285 287 289 291 292 292 293 294 295 297 297 298 299 301 302 302 302 302 302 302 303 304 305 305 306 307 308 309 309 309 310 310 310 310 310 310 311 311 312 312 312 313 313 314 314 315 315 316 317 317 318 318 318 319 319 319 319 319 319 319 319 319 319 319
264 265 267 269 271 272 273 273 273 274 275 276 277 278 278 279 280 281 282 282 284 286 288 290 291 292 293 294 294 295 296 296 298 300 300 301 301 301 301 301 302 303 304 304 305 306 307 307 308 308 309 309 309 309 309 309 310 310 311 311 311 312 312 313 313 314 314 315 316 316 317 317 318 318 318 319 319 319 319 319 319 319 319 319 319
264 265 267 268 270 271 272 272 273 273 275 275 276 277 278 278 280 281 282 283 285 286 288 290 292 292 293 293 294 295 295 297 298 299 299 299 299 300 300 301 302 302 303 304 305 305 306 307 307 308 308 308 308 308 309 309 310 310 310 310 311 311 312 312 313 313 314 314 315 316 316 317 317 318 318 318 318 318 319 319 319 319 320 320 321
265 266 267 268 269 270 271 272 273 273 275 276 277 277 278 279 280 281 282 283 285 286 288 290 292 292 293 293 294 295 296 297 298 298 298 298 298 299 300 301 301 302 303 303 304 305 306 306 306 307 307 308 308 308 308 309 309 309 309 310 310 311 311 312 312 313 313 314 315 315 316 316 317 317 317 318 318 318 318 319 319 320 321 321 322
265 266 267 268 269 270 271 271 272 273 275 276 276 277 278 279 280 281 282 283 285 287 289 291 292 292 292 293 294 294 295 296 296 296 297 297 298 299 299 300 301 302 302 303 303 304 305 305 306 306 306 307 307 307 307 308 308 308 309 309 310 310 311 311 312 312 313 314 314 315 315 316 316 317 317 318 318 318 319 319 320 321 322 322 322
264 265 266 267 268 269 270 271 272 273 274 275 275 276 277 278 279 281 283 284 286 288 290 291 292 291 291 292 293 293 294 294 295 295 296 297 298 298 299 300 300 301 302 302 303 304 304 305 305 305 306 306 306 306 307 307 307 308 308 309 309 310 310 311 311 312 313 313 314 315 315 316 316 317 317 318 318 319 319 320 321 322 323 323 323
264 264 265 266 267 268 269 270 271 272 273 274 275 276 277 279 280 282 284 286 287 288 290 290 290 290 290 291 292 292 293 293 294 295 296 297 298 298 299 300 300 301 301 302 303 303 304 304 304 305 305 305 306 306 306 306 307 308 308 309 309 310 310 311 311 312 313 313 314 315 315 316 316 316 317 318 318 319 320 320 321 322 323 323 324
263 264 265 266 266 267 268 269 270 271 273 274 275 277 279 280 282 284 285 286 287 288 288 288 288 288 289 290 290 290 291 292 293 295 296 297 297 298 299 299 300 300 301 302 302 303 303 303 304 304 304 305 305 305 306 306 307 307 308 308 309 310 310 311 311 312 313 313 314 314 315 315 316 317 317 318 319 320 320 321 322 323 324 325 325
262 264 265 266 267 268 269 269 271 272 273 275 276 278 280 281 282 283 284 285 285 286 286 286 286 287 287 288 289 289 290 291 293 294 295 296 297 297 298 299 299 300 301 301 302 302 302 302 303 303 304 304 304 305 305 306 306 307 308 308 309 309 310 311 311 312 313 313 314 314 315 315 316 317 318 319 320 320 321 322 323 324 325 325 326
263 264 265 266 268 268 269 270 271 272 274 275 277 278 280 281 282 282 283 283 283 284 284 285 285 286 286 287 288 289 290 291 292 294 295 296 296 297 297 298 299 299 300 300 301 301 301 302 302 303 303 303 304 304 305 306 306 307 307 308 308 309 310 310 311 312 312 313 313 314 314 315 316 317 318 319 320 321 322 323 324 325 325 326 326
263 264 265 266 267 268 269 269 271 272 273 275 276 278 278 279 280 280 281 281 282 282 283 284 284 285 286 287 288 289 290 291 292 293 294 295 296 296 297 297 298 299 299 300 300 300 300 301 301 302 302 303 303 304 305 305 306 306 307 308 308 309 310 310 311 312 312 313 313 314 314 315 316 318 319 320 320 321 323 324 324 325 325 326 326
262 263 264 265 266 267 268 269 270 272 273 274 275 276 277 278 278 279 279 280 280 281 282 282 283 284 285 286 287 288 289 290 292 293 294 294 295 296 296 297 297 298 299 299 299 299 299 300 301 301 302 302 303 304 304 305 305 306 307 307 308 309 310 310 311 311 312 312 313 314 315 316 317 318 319 320 321 322 323 323 324 325 325 325 326
260 261 263 264 265 266 267 269 270 271 272 273 274 275 275 276 277 277 278 279 279 280 281 282 283 284 285 286 287 288 289 290 291 292 293 294 294 295 296 296 297 297 298 298 298 298 299 299 300 301 302 302 303 303 304 304 305 306 306 307 308 309 309 310 311 311 312 313 313 314 315 317 318 319 319 320 321 322 323 323 324 325 325 325 326
259 260 262 263 264 266 267 268 269 270 271 272 272 273 274 275 276 277 277 278 279 280 281 282 283 284 285 286 287 288 289 290 291 292 293 293 294 295 295 296 296 297 297 297 297 298 298 299 300 301 301 302 302 303 303 304 305 306 306 307 308 309 309 310 310 311 312 312 313 315 316 317 318 319 319 320 321 322 323 324 325 325 325 326 326
259 260 261 262 263 264 265 266 267 269 270 271 272 273 274 275 276 276 277 278 279 279 280 281 283 284 285 286 287 288 289 290 291 292 293 293 294 294 295 295 296 296 296 297 297 298 298 299 300 301 301 301 302 303 303 304 305 306 306 307 308 308 309 309 310 311 312 313 314 315 316 317 318 319 319 320 321 322 323 324 325 325 326 326 326
259 260 261 262 263 264 265 266 267 268 269 270 271 272 273 274 275 276 277 277 278 279 281 282 283 284 285 286 287 288 289 290 291 292 292 293 293 293 294 294 295 295 296 296 297 298 298 299 300 300 301 301 302 303 304 304 305 306 306 307 307 308 309 309 310 311 312 313 314 315 316 317 318 318 319 320 321 322 323 324 325 325 326 326 326
259 260 261 262 263 264 265 266 267 268 269 270 271 272 273 273 274 275 276 278 279 280 281 283 284 285 286 287 288 289 289 290 290 291 291 291 292 292 293 294 294 295 296 296 297 297 298 299 299 300 301 301 302 303 304 304 305 306 306 306 307 308 309 309 310 311 312 313 314 315 316 317 317 318 319 320 321 321 322 323 324 325 326 326 326
260 260 261 262 263 264 265 266 267 268 269 270 271 272 273 274 275 276 277 278 280 281 282 283 284 285 286 287 288 288 289 289 289 290 290 291 291 292 293 293 294 295 296 296 296 297 298 298 299 300 301 302 303 303 304 304 305 305 306 306 307 308 309 310 311 311 312 313 314 315 316 316 317 318 319 319 320 321 322 323 324 325 326 326 327
260 261 262 263 264 265 265 266 267 268 269 270 272 273 274 275 276 277 278 280 281 282 283 284 285 285 286 287 287 288 288 288 289 289 290 290 291 292 292 293 294 295 295 295 296 297 298 298 299 300 301 302 302 303 303 304 304 305 306 307 307 308 309 310 311 312 312 313 314 315 315 316 317 318 319 319 320 321 323 324 325 326 326 327 327
261 262 263 264 265 266 267 268 269 270 271 272 273 274 275 276 277 279 280 281 282 282 283 284 284 285 285 286 286 287 287 288 288 289 289 290 291 292 293 293 294 294 295 295 296 297 298 299 300 300 301 301 302 302 303 303 304 305 306 307 308 309 309 310 311 311 312 313 314 315 315 316 317 318 319 319 321 322 323 324 325 326 326 326 326
262 263 264 265 266 267 268 269 270 271 272 273 274 275 276 277 278 279 280 281 281 282 282 283 283 284 284 285 286 286 287 287 288 289 290 290 291 292 292 293 293 294 295 295 296 297 298 299 299 300 300 301 301 302 303 303 304 305 306 307 308 309 309 310 311 311 312 313 314 314 315 316 317 318 319 320 321 323 324 324 325 325 326 326 325
264 265 266 267 267 268 269 270 271 272 273 274 275 276 277 277 278 279 279 280 280 281 282 282 283 283 284 285 285 286 287 287 288 289 290 290 291 291 292 293 293 294 295 296 296 297 298 298 299 299 300 301 301 302 303 303 305 306 307 307 308 309 309 310 310 311 312 313 313 314 315 316 317 318 319 320 322 323 323 324 325 325 326 325 325
265 266 267 267 268 269 270 271 271 272 273 274 275 275 276 277 277 278 279 279 280 280 281 281 282 283 284 285 285 286 287 287 288 289 289 290 291 291 292 293 294 294 295 295 296 297 297 298 299 299 300 301 301 302 303 304 305 306 307 307 308 308 309 309 310 311 312 312 313 314 315 315 316 318 319 320 321 322 323 324 324 325 325 325 325
266 266 267 268 268 269 269 270 271 272 272 273 274 274 275 276 277 277 278 278 279 280 281 281 282 283 284 285 285 286 286 287 288 288 289 290 291 291 292 293 294 294 295 295 296 297 297 298 299 299 300 301 302 303 304 305 305 306 306 307 307 308 309 309 310 311 312 312 313 313 314 315 317 318 319 320 321 322 323 323 324 325 325 325 325
264 265 265 266 267 268 268 269 270 271 271 272 273 274 274 275 276 277 277 278 279 280 281 282 282 283 284 284 285 285 286 287 288 288 289 290 291 291 292 293 293 294 295 295 296 297 298 298 299 300 301 302 302 303 304 304 305 305 306 307 308 308 309 309 310 310 311 312 312 313 314 315 317 318 318 319 320 321 322 323 324 324 324 324 324
262 263 264 265 266 267 268 268 269 270 271 272 273 273 274 275 276 277 278 278 279 280 281 281 282 283 283 284 285 285 286 287 288 289 289 290 290 291 292 293 293 294 295 295 296 297 298 299 299 300 301 302 303 303 304 304 305 305 306 307 307 308 308 309 309 310 310 311 312 313 314 315 316 317 318 319 320 321 322 323 324 324 324 324 324
263 264 265 266 266 267 268 269 270 271 271 272 273 274 275 276 276 277 278 279 279 280 281 281 282 283 283 284 285 286 286 287 287 288 289 289 290 291 292 293 293 294 295 295 296 297 298 299 300 300 301 302 302 303 303 304 304 305 306 306 307 307 307 308 309 309 310 310 311 312 313 314 316 317 317 318 319 320 321 322 323 323 323 323 323
265 266 266 267 268 268 269 270 271 271 272 273 274 274 275 276 277 277 278 279 280 280 281 282 282 283 284 284 285 285 286 286 287 288 289 290 291 291 292 293 293 294 295 296 297 297 298 299 299 300 301 301 302 302 303 303 304 305 305 305 306 306 307 307 308 309 309 310 311 312 313 314 315 316 317 318 319 320 321 322 322 322 322 323 323
266 267 267 268 268 269 270 270 271 272 273 273 274 275 276 276 277 278 279 279 280 281 281 282 282 283 283 284 285 285 286 287 288 288 289 290 291 291 292 293 294 295 296 296 296 297 298 298 299 300 300 301 302 302 302 303 303 304 304 305 305 306 306 307 307 308 309 310 311 311 312 314 315 315 316 317 318 320 321 321 321 322 322 322 322
267 268 268 269 269 270 271 271 272 273 273 274 275 276 277 277 278 279 279 280 280 281 282 282 283 284 284 285 285 286 287 287 288 289 290 290 291 292 293 294 295 295 295 296 296 297 297 298 299 299 300 300 301 301 301 302 303 303 304 304 304 305 305 306 307 308 309 310 310 311 312 313 314 315 316 317 318 319 320 321 321 321 322 322 321
270 270 271 271 272 272 273 273 274 274 275 276 276 277 277 278 279 279 280 280 281 282 283 283 284 284 285 285 286 286 287 288 289 290 291 291 292 293 293 294 294 295 295 295 296 296 297 298 298 299 299 299 300 300 301 301 302 302 303 303 303 304 305 306 307 308 309 309 310 311 312 313 314 315 316 316 318 319 319 320 321 321 321 321 321
271 271 272 272 273 273 274 274 275 275 276 276 277 277 278 279 279 280 281 282 282 283 284 284 285 285 286 286 287 287 288 289 290 291 292 292 293 293 293 293 294 294 294 295 296 296 297 297 298 298 298 299 299 299 300 300 301 301 302 302 303 304 305 306 307 308 308 309 309 310 311 312 313 314 315 316 317 318 319 320 320 320 320 320 320
272 273 273 274 274 275 275 275 276 276 277 278 278 279 280 281 281 282 282 283 283 284 285 285 286 286 287 287 288 288 289 290 291 291 292 292 292 292 292 293 293 294 294 295 295 296 296 297 297 297 298 298 298 299 299 300 300 301 302 303 303 304 305 306 306 307 308 308 309 310 311 312 313 314 315 316 317 318 318 319 320 320 320 319 319
276 276 277 277 278 278 279 279 279 280 280 281 281 282 282 283 283 283 284 284 285 285 285 286 286 287 287 288 288 289 290 290 291 291 291 291 291 292 292 292 293 293 294 294 295 295 296 296 296 296 297 298 298 299 299 300 301 301 302 303 303 304 304 305 306 307 307 308 309 310 311 312 313 314 314 315 316 317 318 318 319 319 319 319 319
278 279 279 279 280 280 280 281 281 281 282 282 282 283 283 283 283 284 284 284 285 285 285 286 286 287 287 288 288 288 289 290 290 290 291 291 291 291 292 292 293 293 294 294 294 295 295 295 296 296 297 298 298 299 299 300 301 302 302 303 303 304 304 305 306 307 307 308 309 310 311 312 312 313 314 315 316 316 317 317 318 318 318 318 318
279 279 280 280 280 280 281 281 281 281 282 282 282 282 282 283 283 284 284 284 285 285 285 285 286 286 286 287 287 288 289 289 290 290 290 290 291 291 291 292 292 293 293 294 294 294 295 295 296 297 297 298 298 299 300 301 301 302 302 303 303 303 304 305 306 306 307 308 309 309 310 311 312 313 313 314 315 315 316 317 317 317 317 317 317
278 279 280 280 281 281 281 281 282 282 282 282 282 282 282 283 283 283 283 284 284 284 284 285 285 285 286 286 287 288 288 289 289 290 290 290 291 291 291 292 292 292 293 293 294 294 295 296 296 297 297 298 299 299 300 301 301 301 302 302 302 303 304 305 306 306 307 307 308 309 310 310 311 312 313 313 314 314 315 316 316 317 317 316 316
277 278 279 279 280 280 280 281 281 281 281 281 281 282 282 282 282 282 283 283 283 284 284 285 285 285 286 286 287 287 288 288 289 289 290 290 290 291 291 291 292 292 293 293 294 295 296 296 296 297 297 298 299 299 300 300 301 301 301 302 302 303 304 304 305 305 306 307 307 308 309 310 310 311 312 312 313 314 314 315 316 316 316 315 315
276 277 277 278 278 279 279 279 280 280 280 281 281 281 282 282 282 283 283 283 284 284 284 285 285 285 286 286 286 287 287 288 288 289 289 289 290 290 290 291 292 293 293 294 295 295 296 296 296 297 297 298 298 299 299 300 300 301 301 302 302 302 303 304 304 305 305 306 307 307 308 309 310 310 311 311 312 313 314 314 315 315 315 314 314
276 277 277 278 278 279 279 280 280 281 281 281 282 282 282 283 283 283 283 284 284 284 284 284 285 285 286 286 286 287 287 288 288 289 289 289 290 290 291 292 293 294 294 295 295 295 295 296 296 297 297 298 298 299 299 300 300 300 300 301 301 302 302 303 304 304 305 305 306 307 307 308 309 310 310 311 311 312 313 313 314 314 313 313 313
276 277 277 278 279 279 280 280 281 281 281 282 282 283 283 283 283 284 284 284 284 284 285 285 285 285 286 286 287 287 288 288 289 289 290 291 291 292 293 293 294 294 294 294 295 295 295 296 296 297 297 297 297 298 298 298 299 299 299 300 301 301 302 302 303 303 304 304 305 306 307 308 308 309 309 310 311 311 312 313 313 312 312 312 312
278 278 279 279 280 280 281 281 282 282 283 283 283 284 284 284 284 284 285 285 285 285 285 285 286 286 286 287 287 288 288 289 290 291 291 292 292 292 293 293 293 293 293 294 294 295 295 295 296 296 296 296 297 297 297 298 298 299 299 300 300 300 301 301 302 302 303 304 305 306 306 307 308 308 309 309 310 310 311 311 311 311 311 311 311
279 280 280 281 281 282 282 283 283 284 284 284 284 284 284 285 285 285 285 285 285 285 286 286 286 287 287 287 288 289 289 290 291 291 291 292 292 292 292 292 292 292 293 293 293 294 294 295 295 295 296 296 296 297 297 298 298 298 299 299 299 300 300 301 301 302 303 304 305 305 306 306 307 307 308 308 309 310 310 310 310 310 310 310 310
281 281 282 282 283 283 284 284 284 285 285 285 285 285 285 285 285 285 285 285 286 286 286 286 287 287 288 288 289 289 290 290 291 291 291 291 291 291 291 291 291 292 292 292 293 293 294 294 294 295 295 295 296 296 297 297 297 298 298 298 299 299 300 300 301 302 303 303 304 304 305 306 306 307 307 308 308 309 309 309 309 309 309 309 309
283 283 284 284 284 285 285 285 285 285 285 285 285 285 285 285 285 285 286 286 286 286 287 287 288 288 289 289 290 290 290 290 290 290 290 290 290 290 291 291 291 292 292 292 292 293 293 293 294 294 294 295 295 295 296 296 297 297 297 298 298 298 299 300 301 301 302 303 303 304 304 305 305 306 306 307 307 308 308 307 308 308 308 307 308
284 284 285 285 285 285 285 285 285 285 285 285 285 285 285 285 285 285 286 286 286 287 287 288 288 289 289 289 289 289 289 289 289 289 289 290 290 290 290 290 290 291 291 291 291 292 292 292 293 293 293 294 294 295 295 295 296 296 296 297 297 298 299 299 300 301 301 302 302 303 304 304 304 305 305 306 306 306 306 306 307 307 306 306 307
Height
10769 10769 10769 10769 10768 10768 10768 10767 10766 10765 10764 10763 10761 10758 10756 10754 10753 10750 10748 10745 10742 10740 10737 10734 10731 10727 10724 10721 10718 10715 10712 10708 10705 10701 10697 10693 10688 10684 10680 10674 10669 10664 10659 10654 10648 10642 10637 10632 10627 10621 10615 10609 10603 10596 10590 10584 10580 10574 10567 10561 10555 10550 10546 10541 10537 10535 10524 10508 10498 10493 10486 10478 10472 10463 10458 10453 10444 10434 10423 10413 10403 10393 10381 10372 10363
10761 10761 10761 10761 10760 10760 10759 10759 10758 10757 10757 10755 10753 10750 10748 10746 10744 10742 10739 10736 10734 10731 10728 10725 10722 10719 10715 10712 10709 10706 10703 10699 10695 10691 10687 10683 10679 10674 10669 10664 10659 10653 10648 10642 10637 10631 10626 10620 10614 10609 10603 10597 10590 10584 10578 10572 10566 10560 10554 10547 10541 10534 10529 10525 10520 10518 10514 10501 10487 10480 10474 10464 10457 10450 10443 10437 10432 10425 10415 10404 10394 10383 10371 10359 10349
10753 10753 10752 10752 10751 10751 10752 10751 10750 10749 10748 10747 10744 10742 10740 10737 10735 10733 10730 10727 10725 10722 10719 10716 10712 10709 10706 10703 10700 10697 10693 10689 10685 10682 10678 10674 10669 10664 10659 10653 10648 10642 10637 10631 10626 10620 10615 10609 10603 10597 10591 10586 10580 10573 10567 10561 10554 10547 10541 10534 10527 10520 10513 10508 10504 10499 10498 10492 10478 10468 10462 10453 10442 10435 10430 10422 10413 10407 10401 10391 10381 10370 10358 10346 10336
10744 10744 10743 10743 10743 10743 10744 10743 10742 10741 10739 10738 10736 10733 10731 10728 10726 10723 10721 10718 10716 10713 10710 10706 10703 10700 10697 10694 10691 10687 10683 10679 10676 10672 10669 10664 10660 10654 10648 10643 10637 10631 10626 10620 10615 10610 10604 10598 10591 10586 10580 10574 10568 10562 10555 10549 10542 10535 10528 10521 10514 10507 10499 10492 10487 10482 10478 10475 10466 10455 10447 10440 10430 10421 10415 10410 10400 10391 10383 10375 10365 10356 10346 10331 10316
10735 10736 10735 10735 10735 10735 10735 10734 10732 10731 10730 10728 10727 10724 10722 10719 10716 10714 10711 10709 10706 10703 10700 10697 10694 10691 10688 10684 10681 10677 10673 10670 10667 10663 10659 10654 10649 10643 10638 10632 10626 10621 10615 10610 10604 10599 10593 10587 10581 10574 10569 10563 10556 10550 10543 10536 10529 10523 10516 10509 10501 10494 10486 10478 10471 10465 10459 10454 10449 10442 10432 10424 10417 10407 10397 10392 10386 10379 10372 10366 10355 10343 10334 10322 10304
10727 10727 10726 10726 10727 10726 10725 10724 10723 10722 10720 10719 10717 10714 10712 10709 10707 10704 10702 10699 10696 10693 10691 10688 10684 10681 10677 10674 10670 10667 10664 10661 10657 10653 10649 10644 10638 10633 10627 10621 10615 10610 10604 10599 10594 10589 10583 10577 10570 10564 10557 10551 10544 10538 10530 10523 10516 10510 10503 10496 10489 10481 10472 10464 10456 10449 10442 10435 10429 10425 10417 10409 10402 10395 10385 10376 10369 10361 10355 10353 10345 10332 10321 10312 10297
10718 10718 10718 10718 10717 10717 10716 10714 10713 10712 10711 10709 10706 10704 10702 10699 10697 10694 10691 10689 10686 10683 10680 10677 10673 10670 10667 10664 10661 10658 10654 10651 10647 10643 10638 10632 10627 10622 10616 10610 10605 10599 10594 10589 10583 10578 10573 10566 10560 10554 10547 10540 10533 10526 10518 10511 10504 10497 10491 10483 10476 10468 10459 10451 10442 10435 10428 10420 10413 10408 10402 10394 10387 10382 10374 10365 10356 10345 10333 10328 10326 10319 10310 10299 10283
10709 10709 10709 10708 10708 10707 10706 10705 10704 10702 10700 10698 10695 10693 10691 10688 10686 10683 10681 10678 10675 10672 10669 10666 10664 10661 10658 10655 10651 10648 10644 10641 10637 10632 10626 10621 10616 10610 10605 10600 10595 10589 10583 10578 10573 10568 10563 10556 10550 10543 10536 10530 10523 10514 10507 10500 10492 10485 10477 10471 10463 10456 10447 10438 10431 10423 10414 10407 10400 10394 10389 10381 10372 10367 10361 10353 10344 10335 10323 10313 10306 10299 10291 10283 10266
10700 10699 10699 10698 10697 10697 10696 10695 10693 10691 10689 10687 10684 10682 10680 10677 10675 10672 10670 10667 10664 10662 10660 10657 10655 10652 10649 10645 10641 10638 10634 10630 10625 10620 10615 10610 10605 10600 10595 10589 10584 10578 10573 10568 10563 10557 10552 10546 10539 10533 10526 10519 10511 10503 10496 10489 10482 10474 10466 10459 10451 10444 10436 10427 10418 10411 10403 10395 10388 10382 10376 10368 10358 10352 10348 10340 10330 10321 10311 10301 10292 10283 10272 10266 10255
10690 10690 10689 10688 10687 10687 10686 10684 10682 10680 10678 10676 10674 10671 10669 10667 10664 10662 10659 10657 10655 10653 10650 10648 10645 10642 10639 10635 10631 10627 10623 10618 10614 10609 10604 10599 10594 10589 10584 10579 10573 10568 10562 10557 10551 10546 10540 10534 10528 10522 10516 10509 10500 10492 10485 10478 10471 10463 10455 10448 10440 10432 10425 10416 10407 10399 10392 10384 10375 10367 10363 10355 10345 10337 10331 10325 10315 10304 10294 10284 10276 10269 10257 10248 10241
10681 10680 10679 10678 10677 10676 10675 10673 10672 10670 10668 10666 10663 10661 10659 10656 10654 10652 10650 10648 10645 10643 10640 10637 10635 10632 10628 10625 10621 10616 10611 10607 10602 10597 10592 10588 10583 10578 10573 10568 10562 10557 10551 10546 10540 10534 10528 10522 10516 10511 10505 10498 10489 10481 10474 10466 10459 10451 10443 10434 10427 10420 10412 10404 10396 10387 10379 10371 10361 10352 10346 10340 10331 10322 10315 10309 10301 10290 10279 10268 10258 10250 10240 10228 10218
10671 10670 10669 10668 10667 10666 10664 10663 10661 10660 10658 10656 10653 10652 10650 10647 10645 10643 10641 10638 10636 10633 10630 10627 10625 10622 10618 10614 10609 10604 10599 10595 10591 10587 10582 10577 10572 10567 10561 10555 10550 10544 10539 10533 10528 10522 10516 10509 10503 10499 10493 10486 10478 10470 10462 10454 10446 10438 10429 10421 10412 10405 10398 10389 10382 10374 10366 10358 10349 10337 10329 10324 10316 10307 10298 10292 10286 10277 10265 10255 10244 10236 10225 10212 10198
10661 10660 10659 10658 10657 10656 10654 10653 10651 10650 10648 10646 10644 10643 10641 10638 10636 10634 10631 10628 10626 10623 10620 10617 10614 10610 10606 10602 10597 10593 10588 10584 10580 10576 10572 10568 10562 10556 10549 10543 10538 10532 10526 10521 10515 10509 10503 10496 10491 10486 10480 10473 10466 10458 10449 10441 10433 10425 10416 10407 10399 10390 10382 10373 10365 10358 10350 10342 10334 10324 10314 10307 10301 10293 10283 10274 10266 10259 10250 10240 10232 10224 10213 10200 10185
10650 10650 10649 10648 10647 10646 10645 10643 10642 10640 10638 10637 10635 10633 10631 10629 10626 10624 10621 10618 10616 10613 10609 10606 10602 10598 10594 10590 10586 10582 10577 10573 10569 10566 10562 10557 10551 10545 10538 10532 10526 10520 10515 10510 10504 10497 10490 10484 10478 10474 10468 10461 10454 10446 10437 10429 10421 10412 10403 10394 10385 10376 10368 10359 10351 10342 10334 10326 10319 10310 10300 10292 10285 10277 10269 10259 10250 10240 10231 10221 10214 10206 10198 10188 10174
10641 10640 10639 10638 10637 10635 10634 10633 10632 10630 10628 10626 10625 10623 10621 10618 10616 10613 10611 10608 10604 10601 10597 10594 10590 10586 10582 10579 10575 10571 10567 10562 10558 10555 10551 10546 10540 10533 10526 10520 10514 10509 10504 10498 10492 10485 10478 10472 10466 10461 10455 10449 10441 10434 10426 10417 10409 10400 10391 10382 10373 10364 10355 10347 10339 10330 10322 10313 10304 10296 10287 10278 10270 10262 10254 10245 10236 10226 10215 10204 10194 10186 10180 10174 10165
10630 10629 10628 10626 10625 10624 10623 10623 10621 10619 10618 10616 10615 10612 10609 10607 10605 10602 10599 10596 10593 10589 10585 10582 10579 10575 10571 10568 10564 10560 10556 10551 10547 10544 10540 10534 10527 10520 10513 10507 10502 10497 10492 10487 10480 10474 10467 10461 10455 10450 10443 10436 10429 10422 10414 10406 10397 10389 10380 10371 10362 10353 10344 10336 10327 10318 10309 10300 10291 10283 10274 10264 10255 10247 10238 10230 10222 10212 10203 10192 10182 10173 10165 10159 10155
10618 10616 10615 10613 10613 10613 10612 10611 10610 10608 10607 10605 10603 10600 10597 10595 10593 10590 10587 10584 10580 10577 10574 10570 10567 10564 10561 10557 10553 10550 10545 10540 10536 10532 10528 10521 10514 10507 10500 10494 10489 10485 10480 10474 10468 10461 10455 10449 10444 10438 10431 10424 10417 10410 10402 10394 10386 10378 10370 10360 10351 10342 10333 10325 10316 10306 10296 10287 10278 10269 10259 10250 10240 10232 10223 10216 10207 10198 10190 10182 10173 10163 10153 10145 10141
10604 10602 10601 10601 10601 10601 10601 10600 10598 10596 10594 10592 10590 10587 10585 10583 10581 10578 10575 10572 10569 10565 10563 10559 10556 10553 10550 10546 10543 10539 10534 10529 10524 10519 10514 10508 10501 10494 10488 10482 10476 10472 10467 10461 10455 10448 10442 10437 10431 10425 10419 10411 10404 10397 10389 10382 10374 10366 10358 10349 10340 10332 10323 10314 10305 10296 10285 10275 10266 10256 10247 10237 10228 10219 10211 10203 10195 10186 10178 10170 10161 10151 10141 10131 10123
10590 10588 10589 10590 10590 10590 10588 10586 10585 10582 10581 10579 10577 10575 10573 10570 10568 10566 10563 10561 10558 10554 10551 10548 10545 10542 10539 10535 10531 10527 10522 10518 10512 10506 10500 10493 10488 10482 10476 10470 10464 10459 10454 10447 10440 10434 10429 10423 10418 10412 10405 10398 10391 10384 10376 10369 10362 10354 10346 10338 10329 10321 10312 10304 10295 10287 10277 10267 10257 10247 10238 10228 10219 10209 10200 10191 10183 10175 10165 10157 10147 10136 10126 10116 10107
10577 10578 10579 10578 10577 10576 10574 10572 10571 10569 10568 10566 10564 10562 10561 10559 10557 10554 10552 10549 10546 10543 10540 10537 10534 10531 10527 10523 10519 10514 10510 10505 10500 10493 10486 10480 10475 10470 10464 10458 10452 10446 10441 10433 10426 10420 10414 10409 10404 10398 10391 10384 10377 10370 10363 10356 10349 10341 10333 10326 10318 10310 10302 10293 10285 10276 10268 10258 10249 10239 10230 10220 10209 10199 10190 10181 10172 10162 10151 10143 10134 10123 10112 10102 10094
10567 10566 10565 10564 10563 10562 10561 10559 10558 10557 10556 10554 10552 10550 10548 10546 10545 10542 10540 10537 10534 10532 10529 10526 10522 10519 10514 10510 10506 10501 10497 10493 10487 10480 10473 10467 10463 10458 10452 10446 10440 10434 10427 10420 10413 10406 10400 10395 10389 10383 10376 10369 10362 10356 10349 10342 10335 10327 10320 10313 10306 10298 10291 10282 10274 10265 10257 10248 10239 10230 10221 10211 10201 10190 10180 10171 10162 10151 10141 10131 10121 10111 10100 10089 10081
10554 10553 10552 10551 10550 10549 10548 10547 10546 10545 10543 10542 10540 10538 10536 10534 10533 10530 10528 10526 10523 10520 10517 10513 10509 10506 10501 10497 10493 10488 10484 10479 10473 10467 10461 10455 10450 10445 10440 10434 10428 10421 10414 10406 10399 10392 10386 10380 10374 10368 10361 10354 10348 10341 10334 10327 10321 10314 10307 10300 10292 10285 10278 10270 10262 10254 10245 10237 10229 10220 10212 10203 10194 10184 10174 10164 10154 10144 10134 10124 10112 10102 10090 10078 10068
10540 10539 10539 10538 10537 10536 10535 10534 10533 10532 10531 10529 10527 10526 10524 10522 10521 10519 10516 10514 10511 10508 10504 10500 10496 10492 10487 10483 10479 10475 10471 10466 10460 10454 10449 10443 10438 10433 10427 10421 10415 10408 10400 10392 10385 10378 10372 10366 10360 10353 10347 10340 10333 10326 10320 10314 10307 10301 10294 10287 10280 10272 10265 10257 10250 10241 10233 10226 10218 10210 10202 10194 10185 10177 10167 10158 10149 10139 10129 10118 10106 10094 10082 10069 10058
10527 10527 10526 10525 10524 10524 10523 10522 10521 10520 10518 10517 10515 10514 10512 10511 10509 10507 10504 10501 10498 10494 10490 10486 10482 10478 10473 10469 10465 10461 10457 10452 10446 10440 10435 10430 10425 10420 10414 10408 10402 10395 10386 10378 10371 10365 10359 10353 10346 10340 10333 10326 10319 10313 10307 10301 10294 10288 10281 10274 10267 10260 10252 10244 10237 10229 10221 10214 10207 10199 10190 10182 10174 10166 10158 10149 10141 10132 10121 10109 10097 10085 10074 10060 10047
10515 10514 10514 10513 10512 10511 10511 10510 10509 10508 10506 10505 10503 10502 10500 10498 10496 10493 10491 10487 10483 10479 10475 10471 10468 10464 10460 10455 10452 10448 10443 10437 10432 10427 10421 10416 10411 10406 10401 10395 10389 10381 10372 10364 10357 10351 10345 10339 10333 10327 10320 10313 10307 10300 10294 10287 10281 10275 10269 10262 10254 10247 10239 10231 10224 10216 10209 10202 10195 10187 10179 10170 10162 10154 10146 10138 10130 10121 10110 10099 10087 10076 10065 10053 10039
10502 10502 10502 10501 10500 10500 10499 10498 10497 10495 10494 10492 10491 10489 10486 10484 10482 10479 10476 10472 10468 10465 10461 10458 10454 10450 10446 10442 10439 10435 10429 10423 10418 10412 10406 10401 10396 10391 10386 10381 10375 10367 10358 10349 10343 10338 10333 10327 10321 10314 10307 10301 10294 10287 10281 10274 10269 10262 10256 10249 10241 10234 10226 10218 10211 10204 10197 10190 10182 10175 10167 10158 10150 10141 10132 10123 10116 10108 10099 10090 10080 10070 10060 10049 10036
10490 10490 10490 10489 10488 10487 10486 10485 10484 10482 10481 10479 10477 10475 10473 10470 10468 10465 10461 10457 10454 10451 10448 10444 10440 10436 10432 10429 10426 10421 10415 10409 10403 10397 10392 10387 10381 10376 10371 10366 10361 10353 10344 10335 10329 10325 10320 10314 10308 10301 10294 10288 10281 10274 10268 10261 10255 10249 10242 10235 10229 10221 10214 10206 10199 10192 10185 10177 10170 10162 10154 10145 10137 10129 10119 10110 10102 10095 10088 10080 10071 10062 10052 10042 10030
10477 10477 10476 10476 10475 10474 10473 10472 10471 10469 10467 10466 10464 10461 10459 10456 10454 10450 10447 10444 10441 10438 10434 10430 10426 10422 10419 10416 10411 10405 10400 10394 10388 10383 10378 10372 10366 10361 10356 10351 10347 10340 10330 10321 10316 10312 10308 10302 10295 10288 10281 10275 10268 10261 10254 10247 10241 10235 10228 10222 10216 10209 10201 10194 10186 10178 10170 10163 10155 10147 10139 10132 10124 10116 10107 10098 10090 10083 10076 10069 10060 10051 10042 10032 10021
10464 10463 10463 10462 10461 10461 10460 10459 10457 10456 10454 10452 10450 10448 10445 10443 10440 10437 10433 10430 10427 10424 10420 10417 10412 10409 10406 10402 10397 10391 10385 10379 10374 10369 10363 10357 10351 10346 10341 10337 10332 10326 10318 10308 10302 10299 10295 10288 10281 10274 10267 10261 10254 10247 10240 10234 10227 10221 10215 10209 10202 10195 10187 10180 10172 10164 10156 10148 10140 10133 10126 10119 10112 10104 10096 10087 10079 10071 10064 10057 10049 10040 10031 10022 10012
10451 10450 10449 10449 10448 10447 10446 10445 10444 10442 10440 10438 10436 10434 10431 10429 10426 10423 10419 10416 10413 10410 10407 10403 10398 10394 10391 10387 10382 10376 10371 10365 10360 10355 10349 10343 10337 10332 10327 10323 10319 10313 10306 10296 10289 10286 10281 10275 10268 10261 10253 10247 10240 10233 10226 10219 10212 10207 10201 10194 10187 10180 10172 10165 10158 10150 10142 10134 10126 10119 10113 10106 10100 10093 10085 10077 10069 10061 10053 10046 10038 10030 10021 10012 10003
10438 10437 10436 10435 10435 10434 10432 10431 10429 10427 10426 10424 10422 10420 10417 10414 10411 10408 10405 10403 10399 10396 10392 10388 10383 10379 10376 10372 10367 10362 10356 10350 10346 10340 10334 10329 10324 10319 10314 10310 10305 10300 10293 10284 10276 10272 10268 10262 10255 10248 10241 10234 10228 10221 10214 10206 10198 10192 10185 10179 10173 10166 10158 10152 10145 10137 10130 10121 10113 10105 10098 10093 10087 10081 10074 10067 10059 10052 10044 10035 10027 10019 10011 10003 9995
10424 10424 10423 10422 10421 10420 10418 10417 10415 10413 10411 10409 10407 10405 10403 10400 10397 10394 10391 10388 10385 10381 10377 10372 10368 10364 10361 10357 10352 10347 10342 10337 10332 10327 10321 10316 10312 10307 10302 10297 10291 10286 10281 10272 10264 10258 10255 10249 10243 10236 10229 10223 10217 10209 10201 10193 10186 10180 10172 10165 10159 10152 10146 10139 10132 10125 10117 10108 10100 10092 10085 10079 10075 10068 10061 10054 10048 10042 10034 10025 10017 10009 10001 9993 9985
10410 10409 10408 10408 10407 10406 10404 10402 10400 10399 10397 10395 10393 10391 10388 10385 10382 10379 10376 10373 10369 10365 10361 10356 10353 10349 10346 10342 10338 10333 10328 10324 10319 10314 10309 10305 10300 10295 10290 10283 10277 10273 10268 10261 10252 10246 10241 10237 10232 10225 10218 10212 10205 10197 10189 10181 10175 10168 10161 10153 10146 10139 10133 10126 10120 10113 10105 10096 10087 10079 10072 10067 10062 10056 10048 10041 10036 10030 10022 10015 10007 9999 9991 9983 9975
10394 10393 10393 10392 10392 10390 10389 10387 10385 10383 10382 10380 10378 10375 10372 10370 10367 10364 10361 10358 10354 10350 10345 10341 10338 10334 10331 10328 10324 10319 10315 10311 10307 10301 10297 10293 10288 10282 10277 10271 10265 10259 10255 10249 10241 10235 10230 10225 10220 10214 10207 10200 10193 10184 10176 10168 10162 10156 10148 10141 10134 10127 10120 10114 10107 10100 10093 10084 10075 10067 10060 10054 10049 10043 10036 10029 10023 10017 10011 10003 9996 9988 9980 9972 9965
10379 10378 10377 10376 10375 10374 10373 10371 10370 10368 10366 10364 10362 10360 10357 10354 10352 10349 10346 10343 10339 10335 10331 10327 10323 10319 10316 10313 10309 10305 10302 10298 10293 10288 10284 10279 10274 10269 10264 10259 10253 10246 10241 10235 10229 10223 10218 10213 10207 10201 10195 10189 10181 10173 10164 10156 10150 10143 10136 10128 10121 10114 10107 10101 10094 10088 10080 10072 10063 10055 10048 10043 10037 10031 10023 10017 10011 10005 9999 9992 9984 9976 9969 9961 9955
10365 10363 10362 10361 10360 10359 10358 10356 10355 10353 10352 10350 10348 10345 10343 10340 10338 10335 10332 10328 10325 10321 10317 10313 10309 10305 10301 10297 10293 10289 10287 10284 10280 10275 10269 10265 10260 10255 10251 10246 10240 10233 10228 10222 10216 10211 10205 10199 10194 10188 10183 10177 10170 10161 10153 10145 10138 10131 10123 10115 10108 10101 10094 10087 10081 10074 10067 10059 10051 10043 10037 10031 10025 10018 10011 10005 9999 9993 9987 9980 9972 9964 9957 9950 9943
10351 10350 10349 10347 10346 10345 10344 10342 10341 10339 10337 10335 10333 10331 10329 10326 10323 10320 10317 10314 10311 10307 10303 10298 10294 10290 10286 10281 10276 10274 10272 10269 10266 10261 10255 10250 10246 10241 10236 10233 10227 10221 10215 10209 10203 10197 10192 10186 10180 10174 10169 10163 10157 10149 10142 10134 10126 10119 10111 10103 10095 10087 10080 10075 10069 10062 10055 10047 10039 10032 10026 10019 10013 10006 10000 9993 9987 9981 9975 9968 9961 9953 9945 9938 9931
10339 10337 10335 10334 10333 10331 10330 10328 10326 10324 10322 10320 10318 10316 10314 10311 10308 10305 10302 10299 10296 10293 10289 10284 10280 10275 10271 10265 10261 10259 10257 10255 10253 10248 10241 10236 10232 10226 10221 10218 10213 10207 10202 10196 10189 10183 10178 10172 10165 10159 10154 10149 10143 10136 10129 10121 10113 10105 10097 10088 10081 10073 10067 10062 10056 10049 10042 10035 10027 10020 10014 10007 10000 9993 9987 9981 9975 9969 9963 9956 9950 9943 9934 9927 9920
10325 10324 10322 10320 10318 10316 10314 10313 10311 10309 10307 10305 10303 10301 10299 10296 10293 10290 10287 10285 10282 10279 10275 10271 10266 10262 10256 10251 10248 10245 10243 10242 10239 10234 10228 10222 10217 10211 10207 10203 10198 10193 10188 10182 10176 10169 10163 10157 10151 10145 10139 10133 10128 10121 10114 10106 10099 10091 10083 10074 10066 10059 10053 10048 10042 10035 10028 10021 10013 10006 10001 9994 9987 9980 9974 9968 9963 9957 9951 9945 9939 9933 9925 9917 9910
10313 10311 10309 10308 10305 10303 10301 10299 10297 10295 10293 10291 10289 10287 10285 10282 10279 10276 10273 10271 10268 10265 10261 10258 10254 10248 10243 10239 10235 10232 10230 10229 10226 10220 10214 10209 10202 10197 10192 10188 10183 10178 10174 10168 10161 10154 10148 10142 10137 10131 10124 10118 10112 10105 10098 10092 10084 10077 10069 10061 10052 10044 10038 10034 10028 10021 10013 10006 9999 9992 9987 9981 9975 9968 9961 9955 9950 9945 9940 9934 9928 9922 9915 9907 9900
10300 10298 10297 10295 10293 10291 10289 10286 10284 10282 10280 10278 10276 10274 10271 10269 10266 10263 10261 10258 10255 10251 10248 10246 10241 10236 10231 10227 10223 10219 10217 10216 10211 10206 10200 10194 10188 10183 10178 10173 10168 10164 10159 10153 10147 10139 10133 10127 10121 10115 10109 10103 10096 10090 10083 10076 10070 10062 10055 10047 10039 10030 10024 10020 10014 10006 9999 9992 9985 9979 9974 9968 9963 9956 9949 9944 9939 9933 9928 9922 9917 9911 9904 9897 9890
10288 10287 10285 10283 10281 10279 10277 10274 10272 10270 10268 10265 10263 10260 10258 10256 10253 10251 10248 10245 10241 10238 10235 10232 10228 10223 10218 10213 10209 10205 10204 10201 10197 10191 10185 10179 10174 10169 10163 10157 10153 10149 10144 10137 10131 10124 10117 10111 10105 10099 10094 10088 10081 10074 10068 10061 10054 10047 10040 10033 10025 10016 10010 10006 10000 9993 9986 9979 9972 9966 9961 9956 9950 9944 9938 9932 9927 9922 9917 9911 9906 9900 9893 9886 9880
10278 10276 10274 10272 10270 10268 10265 10263 10261 10258 10256 10253 10250 10248 10245 10242 10240 10237 10234 10231 10228 10224 10221 10217 10213 10208 10203 10199 10194 10191 10189 10186 10181 10176 10170 10164 10159 10153 10147 10142 10138 10133 10127 10121 10115 10108 10102 10095 10087 10082 10077 10071 10065 10058 10052 10045 10039 10032 10024 10017 10010 10002 9996 9992 9986 9980 9973 9966 9959 9953 9947 9943 9938 9932 9926 9920 9915 9910 9905 9900 9895 9889 9883 9877 9871
10267 10265 10263 10261 10259 10256 10254 10251 10249 10246 10243 10240 10237 10234 10231 10228 10225 10223 10220 10217 10213 10209 10205 10201 10197 10192 10188 10183 10178 10175 10173 10170 10165 10160 10155 10149 10143 10138 10132 10127 10122 10117 10111 10105 10098 10092 10085 10078 10070 10064 10060 10055 10049 10042 10035 10029 10023 10016 10009 10002 9994 9987 9982 9978 9972 9966 9960 9954 9947 9940 9935 9930 9925 9920 9914 9908 9903 9898 9893 9888 9883 9878 9872 9867 9862
10254 10252 10250 10248 10246 10243 10241 10238 10236 10233 10230 10227 10224 10221 10217 10214 10211 10207 10204 10201 10198 10194 10189 10185 10181 10176 10172 10166 10162 10159 10156 10153 10148 10143 10138 10131 10126 10120 10115 10110 10106 10100 10094 10088 10081 10075 10069 10061 10054 10047 10042 10037 10032 10025 10019 10013 10007 10000 9994 9987 9980 9973 9967 9962 9957 9952 9947 9941 9935 9928 9922 9917 9913 9907 9901 9895 9891 9887 9882 9877 9872 9867 9861 9856 9852
10240 10238 10236 10234 10232 10229 10227 10224 10222 10219 10216 10213 10209 10206 10202 10199 10195 10191 10188 10184 10180 10176 10173 10168 10164 10159 10155 10149 10145 10142 10139 10135 10130 10125 10119 10112 10107 10101 10097 10093 10088 10083 10077 10071 10064 10058 10051 10044 10036 10030 10025 10020 10015 10009 10003 9998 9992 9985 9979 9972 9965 9958 9952 9947 9942 9937 9933 9928 9923 9916 9910 9905 9900 9895 9889 9883 9879 9875 9871 9866 9861 9856 9850 9846 9841
10226 10224 10222 10220 10217 10214 10212 10209 10206 10203 10200 10197 10194 10190 10187 10183 10179 10175 10172 10167 10163 10159 10155 10151 10146 10141 10136 10131 10127 10124 10120 10116 10111 10106 10100 10093 10088 10083 10079 10075 10071 10065 10060 10054 10047 10041 10034 10028 10021 10013 10007 10001 9997 9992 9986 9980 9974 9968 9962 9956 9950 9944 9938 9933 9928 9923 9919 9914 9909 9903 9897 9892 9888 9882 9877 9872 9867 9863 9859 9855 9850 9845 9840 9835 9831
10210 10208 10206 10203 10201 10198 10195 10193 10190 10187 10183 10180 10177 10174 10170 10166 10163 10159 10154 10150 10146 10142 10137 10133 10128 10123 10118 10113 10109 10105 10101 10097 10093 10088 10081 10075 10069 10065 10062 10057 10052 10048 10043 10037 10030 10024 10018 10012 10005 9998 9990 9983 9978 9973 9967 9962 9957 9951 9945 9940 9934 9928 9923 9918 9913 9908 9904 9900 9895 9889 9884 9880 9875 9870 9865 9860 9856 9851 9847 9843 9839 9834 9829 9824 9820
10193 10190 10188 10186 10183 10180 10178 10175 10172 10169 10166 10162 10160 10156 10152 10148 10145 10141 10136 10132 10128 10124 10119 10114 10109 10104 10099 10095 10090 10085 10081 10078 10074 10068 10062 10056 10051 10046 10042 10038 10033 10029 10024 10018 10011 10006 10000 9995 9989 9981 9974 9967 9961 9955 9949 9944 9939 9934 9928 9923 9917 9911 9906 9902 9898 9893 9890 9886 9881 9876 9871 9867 9863 9858 9854 9849 9844 9840 9835 9831 9827 9823 9818 9813 9809
10175 10173 10170 10168 10165 10162 10160 10157 10154 10151 10148 10145 10142 10138 10134 10130 10126 10122 10117 10113 10109 10104 10099 10094 10089 10084 10080 10075 10071 10066 10062 10059 10054 10048 10042 10037 10031 10026 10022 10017 10012 10008 10003 9998 9992 9986 9982 9977 9971 9964 9957 9951 9944 9938 9932 9927 9921 9916 9911 9905 9900 9895 9890 9886 9882 9879 9876 9872 9867 9862 9859 9855 9850 9846 9842 9838 9833 9828 9823 9819 9815 9811 9807 9802 9798
10156 10154 10152 10149 10147 10144 10141 10139 10136 10133 10130 10127 10123 10120 10116 10112 10108 10103 10099 10095 10090 10086 10081 10076 10071 10066 10061 10056 10052 10048 10044 10039 10034 10028 10023 10017 10012 10007 10002 9997 9992 9988 9983 9978 9972 9967 9963 9959 9954 9947 9941 9935 9928 9922 9916 9910 9905 9899 9894 9889 9884 9880 9875 9871 9868 9865 9862 9858 9854 9849 9846 9842 9837 9833 9829 9826 9821 9817 9812 9808 9804 9800 9795 9791 9788